Notices

What's New in latest Release from April 7th, 2021:

- Updated Glossary, including Speed of Maximum Gust, and Total Hourly Precipitation

- Updated national and regional climate services offices contacts and prices information

- Addition of station inventory lists for 1981-2010, 1971-2000, and 1961-1990 Normals.

If you haven't already, please take our survey and provide feedback about our website: https://eccc.sondage-survey.ca/f/LanguageSelection.aspx?s=442ca660-fcf1-47c0-95a9-59707d6fd709

Hourly Data Report for April 08, 2018

CLYDE RIVER A
NUNAVUT
Current Station Operator: NAVCAN

70°29'09.000" N
68°31'01.000" W
26.50 m
2400804
71090
YCY

Download Data

Hourly Data (April 2018)
Hourly Data Report for April 8, 2018
TIME
LST
Temp Definition
°C
Dew Point Definition
°C
Rel Hum Definition
%
Precip. Amount Definition
mm

Wind Dir Definition
10's deg

Wind Spd Definition
km/h
Visibility Definition
km
Stn Press Definition
kPa
Hmdx Definition


Wind Chill Definition


Weather Definition


00:00 -21.1 -24.0 78 0.0 29 21 16.1 100.32   -32 Snow
01:00 -20.9 -23.5 80 0.0 33 18 16.1 100.29   -31 Snow
02:00 -21.6 -24.5 78 0.0 30 17 16.1 100.28   -32 Snow
03:00 -21.6 -24.6 77 0.0 29 18 16.1 100.30   -32 LegendNANA
04:00 -22.1 -25.1 77 0.0 29 22 16.1 100.25   -34 Snow
05:00 -22.6 -25.5 78 0.0 30 18 16.1 100.25   -33 LegendNANA
06:00 -22.1 -25.1 77 0.0 30 21 16.1 100.24   -33 LegendNANA
07:00 -22.2 -25.4 76 0.0 30 21 16.1 100.22   -34 LegendNANA
08:00 -21.8 -25.1 75 0.0 30 17 16.1 100.20   -32 LegendNANA
09:00 -20.8 -24.1 75 0.0 31 24 16.1 100.18   -32 LegendNANA
10:00 -20.6 -23.8 76 0.0 31 28 14.5 100.12   -33 LegendNANA
11:00 -20.6 -23.8 76 0.0 32 30 6.4 100.13   -33 Haze
12:00 -20.5 -23.7 76 0.0 31 34 4.8 100.08   -34 Haze
13:00 -20.1 -23.3 76 0.0 32 41 4.0 100.06   -34 Blowing Snow
14:00 -20.0 -23.4 75 0.0 32 32 4.0 100.09   -33 Haze
15:00 -20.2 -23.4 76 0.0 32 32 6.4 100.07   -33 Haze
16:00 -20.5 -23.6 77 0.0 32 35 3.6 100.05   -34 Haze
17:00 -20.8 -24.0 76 0.0 32 32 16.1 100.07   -34 LegendNANA
18:00 -21.3 -24.3 77 0.0 31 28 16.1 100.11   -34 LegendNANA
19:00 -22.3 -25.3 77 0.0 30 32 16.1 100.11   -36 LegendNANA
20:00 -22.5 -25.3 79 0.0 30 26 16.1 100.14   -35 LegendNANA
21:00 -22.4 -25.3 78 0.0 30 21 16.1 100.16   -34 LegendNANA
22:00 -21.6 -24.2 80 0.0 30 22 16.1 100.12   -33 LegendNANA
23:00 -22.1 -24.7 80 0.0 30 21 16.1 100.12   -33 LegendNANA

Notes on Data Quality.

Legend

  • E = Estimated
  • M = Missing
  • NA = Not Available*
  • [empty] = Indicates an unobserved value
Date modified: